Ahoskie, NC

8:46 AM EDT on October 20, 2017 (GMT -0400)
Tri County

Weather History for KASJ - January, 2014

Change the Weather History Date:

Sunday, January 12, 2014

  Actual Average (KEMV) Record (KEMV)
Temperature  
Mean Temperature 44 °F -  
Max Temperature 55 °F 49 °F 69 °F (2005)
Min Temperature 33 °F 26 °F 3 °F (1988)
Degree Days  
Heating Degree Days 20    
Moisture  
Dew Point 36 °F    
Average Humidity 68    
Maximum Humidity 97    
Minimum Humidity 40    
Precipitation  
Precipitation 0.00 in - - ()
Sea Level Pressure  
Sea Level Pressure 29.98 in    
Wind  
Wind Speed 1 mph (West)    
Max Wind Speed 7 mph    
Max Gust Speed -    
Visibility 10 miles    
Events      
Averages and records for this station are not official NWS values.
T = Trace of Precipitation, MM = Missing Value Source: NWS Daily Summary

Daily Weather History Graph

Daily Weather History Graph

Search for Another Location

Airport or City:

Trip Planner

Search our weather history database for the weather conditions in past years. The results will help you decide how hot, cold, wet, or windy it might be!

Date:

Astronomy

Jan. 12, 2014 Rise Set
Actual Time 7:19 AM EST 5:14 PM EST
Civil Twilight 6:51 AM EST 5:42 PM EST
Nautical Twilight 6:20 AM EST 6:14 PM EST
Astronomical Twilight 5:49 AM EST 6:45 PM EST
Moon 2:40 PM EST (1/12) 4:17 AM EST (1/12)
Length of Visible Light 10h 50m
Length of Day
9h 54m
Waxing Gibbous, 89% of the Moon is Illuminated
Jan 12
Waxing Gibbous
Jan 15
Full
Jan 24
Last Quarter
Jan 30
New
Feb 6
First Quarter

Hourly Weather History & Observations

Time (EST) Temp. Dew Point Humidity Pressure Visibility Wind Dir Wind Speed Gust Speed Precip Events Conditions
12:15 AM 51.8 °F 50.2 °F 94% 29.65 in 10.0 mi Calm Calm - N/A   Clear
12:35 AM 50.9 °F 49.5 °F 95% 29.65 in 2.5 mi Calm Calm - N/A   Clear
12:55 AM 50.0 °F 49.1 °F 97% 29.65 in 7.0 mi Calm Calm - N/A   Scattered Clouds
1:15 AM 50.9 °F 50.0 °F 97% 29.67 in 10.0 mi Calm Calm - N/A   Scattered Clouds
1:35 AM 51.1 °F 49.8 °F 95% 29.67 in 10.0 mi Calm Calm - N/A   Clear
1:55 AM 51.8 °F 50.0 °F 94% 29.68 in 10.0 mi Calm Calm - N/A   Clear
2:15 AM 52.2 °F 50.2 °F 93% 29.65 in 10.0 mi Calm Calm - N/A   Clear
2:35 AM 51.8 °F 49.1 °F 90% 29.70 in 10.0 mi Calm Calm - N/A   Scattered Clouds
2:55 AM 53.6 °F 44.4 °F 71% 29.68 in 10.0 mi Calm Calm - N/A   Mostly Cloudy
3:15 AM 51.6 °F 43.5 °F 74% 29.72 in 10.0 mi Calm Calm - N/A   Mostly Cloudy
3:35 AM 50.9 °F 43.3 °F 75% 29.71 in 10.0 mi Calm Calm - N/A   Scattered Clouds
3:55 AM 50.4 °F 41.4 °F 71% 29.72 in 10.0 mi Calm Calm - N/A   Clear
4:15 AM 50.2 °F 39.6 °F 67% 29.74 in 10.0 mi West 3.5 mph - N/A   Clear
4:35 AM 49.3 °F 38.3 °F 66% 29.76 in 10.0 mi WNW 3.5 mph - N/A   Clear
4:50 AM 49.1 °F 36.7 °F 62% 29.78 in 10.0 mi West 4.6 mph - N/A   Clear
5:15 AM 48.2 °F 35.1 °F 60% 29.80 in 10.0 mi NW 3.5 mph - N/A   Clear
5:35 AM 47.3 °F 33.6 °F 59% 29.81 in 10.0 mi West 3.5 mph - N/A   Clear
5:55 AM 46.8 °F 32.9 °F 59% 29.83 in 10.0 mi Calm Calm - N/A   Clear
6:15 AM 45.9 °F 32.4 °F 59% 29.85 in 10.0 mi Calm Calm - N/A   Clear
6:35 AM 45.3 °F 32.0 °F 60% 29.87 in 10.0 mi Calm Calm - N/A   Clear
6:55 AM 45.0 °F 32.0 °F 60% 29.89 in 10.0 mi Calm Calm - N/A   Clear
7:15 AM 42.4 °F 32.0 °F 67% 29.91 in 10.0 mi Calm Calm - N/A   Clear
7:35 AM 43.0 °F 32.5 °F 67% 29.92 in 10.0 mi Calm Calm - N/A   Clear
7:55 AM 43.9 °F 33.1 °F 66% 29.93 in 10.0 mi Calm Calm - N/A   Clear
8:15 AM 44.6 °F 33.4 °F 65% 29.95 in 10.0 mi Calm Calm - N/A   Clear
8:35 AM 45.7 °F 35.4 °F 67% 29.97 in 10.0 mi Calm Calm - N/A   Clear
8:55 AM 46.6 °F 34.2 °F 62% 29.98 in 10.0 mi West 4.6 mph - N/A   Clear
9:15 AM 47.3 °F 33.8 °F 59% 29.98 in 10.0 mi West 3.5 mph - N/A   Clear
9:35 AM 48.0 °F 32.9 °F 56% 30.00 in 10.0 mi WNW 5.8 mph - N/A   Clear
9:55 AM 48.4 °F 33.1 °F 56% 30.01 in 10.0 mi WNW 4.6 mph - N/A   Clear
10:15 AM 49.1 °F 32.5 °F 53% 30.02 in 10.0 mi NW 3.5 mph - N/A   Clear
10:35 AM 50.0 °F 32.7 °F 52% 30.02 in 10.0 mi West 4.6 mph - N/A   Clear
10:55 AM 50.5 °F 32.4 °F 50% 30.02 in 10.0 mi WSW 3.5 mph - N/A   Clear
11:15 AM 51.3 °F 32.2 °F 48% 30.02 in 10.0 mi Calm Calm - N/A   Clear
11:35 AM 51.6 °F 31.5 °F 46% 30.02 in 10.0 mi Calm Calm - N/A   Clear
11:55 AM 52.5 °F 32.5 °F 47% 30.01 in 10.0 mi WSW 4.6 mph - N/A   Clear
12:15 PM 53.2 °F 32.4 °F 45% 30.00 in 10.0 mi Calm Calm - N/A   Clear
12:35 PM 53.1 °F 31.6 °F 44% 30.01 in 10.0 mi Calm Calm - N/A   Clear
12:55 PM 53.8 °F 31.6 °F 43% 30.01 in 10.0 mi West 6.9 mph - N/A   Clear
1:15 PM 53.8 °F 32.0 °F 44% 30.02 in 10.0 mi West 4.6 mph - N/A   Clear
1:35 PM 54.7 °F 31.5 °F 41% 30.03 in 10.0 mi WSW 4.6 mph - N/A   Clear
1:55 PM 54.0 °F 30.7 °F 41% 30.04 in 10.0 mi West 3.5 mph - N/A   Clear
2:15 PM 55.2 °F 33.1 °F 43% 30.04 in 10.0 mi Calm Calm - N/A   Clear
2:35 PM 54.0 °F 30.7 °F 41% 30.04 in 10.0 mi NW 3.5 mph - N/A   Clear
2:55 PM 54.7 °F 31.6 °F 42% 30.04 in 10.0 mi WNW 3.5 mph - N/A   Clear
3:15 PM 54.7 °F 30.7 °F 40% 30.05 in 10.0 mi WNW 3.5 mph - N/A   Clear
3:35 PM 54.7 °F 31.8 °F 42% 30.06 in 10.0 mi Calm Calm - N/A   Clear
3:55 PM 54.5 °F 31.3 °F 41% 30.06 in 10.0 mi Calm Calm - N/A   Clear
4:15 PM 53.6 °F 31.8 °F 44% 30.08 in 10.0 mi Calm Calm - N/A   Clear
4:35 PM 53.2 °F 32.0 °F 44% 30.09 in 10.0 mi Calm Calm - N/A   Clear
4:55 PM 51.6 °F 33.4 °F 50% 30.10 in 10.0 mi Calm Calm - N/A   Clear
5:15 PM 48.2 °F 35.4 °F 61% 30.11 in 10.0 mi Calm Calm - N/A   Clear
5:35 PM 46.8 °F 35.2 °F 64% 30.12 in 10.0 mi Calm Calm - N/A   Clear
5:55 PM 44.8 °F 36.1 °F 72% 30.13 in 10.0 mi Calm Calm - N/A   Clear
6:15 PM 42.8 °F 35.8 °F 76% 30.13 in 10.0 mi Calm Calm - N/A   Clear
6:35 PM 42.3 °F 35.6 °F 77% 30.14 in 10.0 mi Calm Calm - N/A   Clear
6:55 PM 41.5 °F 36.7 °F 83% 30.15 in 10.0 mi Calm Calm - N/A   Clear
7:15 PM 37.9 °F 34.5 °F 87% 30.15 in 10.0 mi Calm Calm - N/A   Clear
7:35 PM 39.4 °F 35.1 °F 84% 30.16 in 10.0 mi Calm Calm - N/A   Clear
7:55 PM 39.2 °F 35.1 °F 85% 30.17 in 10.0 mi Calm Calm - N/A   Clear
8:15 PM 38.8 °F 35.4 °F 88% 30.17 in 10.0 mi Calm Calm - N/A   Clear
8:35 PM 37.6 °F 34.3 °F 88% 30.17 in 10.0 mi Calm Calm - N/A   Clear
8:55 PM 37.6 °F 35.2 °F 91% 30.17 in 10.0 mi Calm Calm - N/A   Clear
9:15 PM 37.6 °F 35.1 °F 91% 30.18 in 10.0 mi Calm Calm - N/A   Clear
9:35 PM 35.6 °F 33.8 °F 93% 30.18 in 10.0 mi Calm Calm - N/A   Clear
9:55 PM 36.5 °F 33.8 °F 90% 30.19 in 10.0 mi Calm Calm - N/A   Clear
10:15 PM 37.4 °F 34.2 °F 88% 30.18 in 10.0 mi Calm Calm - N/A   Clear
10:35 PM 36.5 °F 34.3 °F 92% 30.18 in 10.0 mi Calm Calm - N/A   Clear
10:55 PM 34.7 °F 32.5 °F 92% 30.18 in 10.0 mi Calm Calm - N/A   Clear
11:15 PM 35.4 °F 33.8 °F 94% 30.18 in 10.0 mi Calm Calm - N/A   Clear
11:35 PM 34.0 °F 32.5 °F 94% 30.18 in 10.0 mi Calm Calm - N/A   Clear
11:55 PM 33.4 °F 32.0 °F 94% 30.18 in 10.0 mi Calm Calm - N/A   Clear